sat.trackr.live / text

‹ back to catalog

STARLINK-36519

NORAD 67449 · 2026-008E

PAYLOAD ACTIVE UNKNOWN

§ Identity

Operator
Country
US
Launch date
2026-01-14
Launch site
AFETR
Launch vehicle
Mass (kg)
RCS (m²)

Purposes: comms

External: N2YO · Heavens-Above · Gunter

§ Orbital elements

Epoch: 2026-09-19T12:21:42.965568Z

Period
94.27 min
Inclination
43.0009°
Eccentricity
0.0001571
Mean motion
15.27590858 rev/d
Perigee alt
481.9 km
Apogee alt
484.1 km
Semi-major
6,861.2 km
B*
3.5314e-4
RAAN
190.7463°
Arg perigee
266.3057°
Mean anomaly
93.7615°
Rev number
3,921

§ Raw data

STARLINK-365191 67449U 26008E   26262.51508062  .00009471  00000+0  35314-3 0  99902 67449  43.0009 190.7463 0001571 266.3057  93.7615 15.27590858 39217

JSON: /api/v1/satellites/67449 · /tle

For live sub-satellite position, see the globe view (requires WebGL).

§ Visibility from observer

Set your observer location to see the next 7 days of passes ≥ 10°. The values pass through the URL so the page stays shareable.

No JS? Fill the form by hand. The geolocation button needs JavaScript.